Location: American Medical Response
(33.3472°N, 96.5511°W)
Time: 15:25:08
(UTC+00:00)

SJ 16-02 - Pass Details

Date: 12 July 2022
Orbit: 604 x 615 km, 75.0° (Epoch: 14 August)

Event Time Altitude Azimuth Distance (km) Brightness Sun altitude
Rises 03:46:15 0° 9° (N) 2,888 5.4 -22.0°
Reaches altitude 10° 03:50:01 10° 42° (NE) 1,976 4.0 -22.6°
Enters shadow 03:51:14 12° 58° (ENE) 1,869 3.7 -22.7°
